[[{"header":{"parameterUnit":"m.s-1","parameterCategory":1,"la1":30.2991,"la2":30.254,"lo1":-89.0895,"lo2":-89.0444,"dy":0.0017,"dx":0.0017,"nx":28,"ny":28,"refTime":"2025-06-10T03:00:00:Z","depth":0,"parameterNumber":2,"parameterNumberName":"U-component_of_WINDS"},"data":[0,0,0,0,0,0,0,0,0,0,0,0,0,0,0,0,0,0,0,0,0,0,0,0,0,0,0,0,0,0,0,0,0,0,0,0,0,0,0,0,0,0,0,0,0,0,0,0,0,0,0,0,0,0,0,0,0,0,2.8096,2.8094,0,2.7917,2.7915,2.7913,2.7714,2.7712,2.7709,2.7706,2.7526,2.7524,2.7522,0,0,0,0,0,0,0,0,0,0,0,0,0,2.8271,2.8269,2.8096,2.8094,2.8092,2.7917,2.7915,2.7912,2.7715,2.7711,2.7708,2.7705,2.7527,2.7524,2.7522,0,0,0,0,0,0,0,0,0,0,0,0,0,2.8154,2.8268,2.8096,2.7972,2.7959,2.7918,2.7915,2.7912,2.7716,2.7711,2.7707,2.7703,2.7527,2.7524,2.7521,2.7589,0,0,2.7512,2.751,0,0,0,0,0,0,0,0,2.8161,2.8148,2.7992,2.798,2.7966,2.7833,2.791,2.7804,2.7717,2.7808,2.7706,2.7701,2.7632,2.762,2.7596,2.7581,2.7573,2.7512,2.751,2.7508,2.7507,0,0,0,0,0,0,0,2.817,2.8155,2.8025,2.7991,2.7974,2.7927,2.7905,2.7889,2.7747,2.78,2.7785,2.7766,2.7624,2.76,2.759,2.757,2.7512,2.7509,2.7507,2.7506,2.7604,2.7608,0,0,0,0,0,0,2.8196,2.8163,2.8031,2.802,2.8055,2.7927,2.7903,2.788,2.7746,2.7722,2.777,2.7758,2.7607,2.7594,2.7583,2.7654,2.7508,2.7505,2.7504,2.7599,2.7605,2.761,0,0,0,0,0,0,2.8201,2.8186,2.8038,2.8087,2.8065,2.7929,2.7905,2.7879,2.7854,2.7724,2.7698,2.7771,2.7603,2.7588,2.7589,2.7645,2.7504,2.7501,2.7594,2.7601,2.7607,2.7797,0,0,0,0,0,0,2.8206,2.8189,2.8212,2.8089,2.8063,2.8046,2.7908,2.7879,2.7849,2.7831,2.7718,2.7695,2.7599,2.7595,2.7586,2.7638,2.7499,2.7588,2.7597,2.7605,2.7785,2.7809,2.783,0,0,0,0,0,2.8213,2.8272,2.8214,2.8199,2.8088,2.8049,2.8034,2.7921,2.7855,2.7877,2.7794,2.7699,2.7641,2.7597,2.7585,2.7637,2.7584,2.7595,2.7604,2.7775,2.7804,2.7829,0,0,0,0,0,0,2.8405,2.8254,2.8187,2.8208,2.8144,2.8016,2.8041,2.7956,2.7909,2.7894,2.7757,2.7733,2.7752,2.7695,2.7648,2.7697,2.7599,2.7608,2.7733,2.776,2.7782,2.7795,2.7496,0,0,0,0,0,2.845,2.843,2.8299,2.8331,2.8301,2.8178,2.8157,2.8075,2.8003,2.7974,2.7891,2.7825,2.7792,2.7773,2.7735,2.7777,2.775,2.7807,2.783,2.7849,2.7857,2.7876,2.79,2.7643,2.7643,2.7643,0,0,2.8542,2.8457,2.8452,2.8367,2.8307,2.8291,2.8156,2.8143,2.813,2.7972,2.7968,2.7906,2.7824,2.7846,2.7852,2.7799,2.7923,2.7862,2.7878,2.7875,2.7889,2.7914,2.7936,2.765,2.7648,2.7647,0,0,2.8701,2.8635,2.8653,2.8597,2.8508,2.8426,2.8432,2.8318,2.827,2.8264,2.8146,2.8129,2.8075,2.8022,2.7988,2.8132,2.8043,2.8124,2.8241,2.8261,2.8281,2.8298,2.835,2.837,2.8133,2.8133,2.8134,0,2.8826,2.8795,2.8674,2.867,2.8637,2.8494,2.8513,2.8465,2.8369,2.835,2.8293,2.8223,2.8158,2.8166,2.8202,2.8179,2.8182,2.8134,2.8288,2.8304,2.8318,2.8366,2.8386,2.8144,2.8142,2.8141,2.814,0,2.8954,2.8936,2.8962,2.8873,2.8843,2.8851,2.8733,2.8718,2.8641,2.8566,2.8563,2.8481,2.8424,2.8421,2.8345,2.842,2.839,2.8313,2.8211,2.8355,2.8398,2.8415,2.8159,2.8155,2.8152,2.8149,0,0,2.9224,2.9071,2.9083,2.9042,2.8935,2.8919,2.8923,2.8867,2.8857,2.8798,2.8797,2.8757,2.8685,2.8647,2.8565,2.8583,2.8703,2.8503,2.8499,2.8543,2.8781,2.8839,2.8861,2.8645,2.8648,2.865,2.8788,0,2.9363,2.9358,2.9251,2.9277,2.9259,2.9125,2.9128,2.9065,2.8996,2.8972,2.8896,2.887,2.8777,2.8753,2.8766,2.8686,2.8749,2.8675,2.8644,2.8644,2.8666,2.8883,2.8943,2.9077,2.8803,2.8806,2.8808,0,2.9523,2.9473,2.9497,2.9393,2.9381,2.9385,2.9327,2.9306,2.9233,2.9181,2.9141,2.9049,2.9046,2.8953,2.8949,2.8901,2.8883,2.8842,2.8845,2.8836,2.8733,2.888,2.9116,2.9137,2.8833,2.8831,2.8829,0,2.9718,2.9657,2.9663,2.9632,2.9511,2.9517,2.9467,2.9389,2.9364,2.9314,2.9297,2.9249,2.9222,2.9188,2.9086,2.9027,2.9094,2.8992,2.9052,2.9055,2.9069,2.907,2.9306,2.9061,2.9061,2.9061,2.906,0,2.9883,2.9902,2.9749,2.9753,2.9772,2.9652,2.9674,2.9611,2.9544,2.9535,2.9418,2.9412,2.9279,2.9258,2.9179,2.9188,2.9178,2.9137,2.9115,2.9146,2.9151,2.9131,2.9118,2.9066,2.9065,2.9064,2.9063,0,3.0101,2.9999,2.9998,2.9884,2.9856,2.9875,2.9778,2.9778,2.9704,2.9694,2.9685,2.9569,2.9539,2.9435,2.938,2.9327,2.9361,2.932,2.9385,2.9371,2.9437,2.9432,2.9666,2.9691,2.9433,2.9436,2.9438,0,3.0212,3.0224,3.0113,3.0098,3.0053,3.0031,3.0004,2.9888,2.9866,2.9785,2.9796,2.9757,2.9719,2.9679,2.9591,2.9549,2.9505,2.9591,2.9498,2.953,2.9506,2.9506,2.9507,2.961,2.9614,2.9616,2.9619,0,3.042,3.037,3.0336,3.0287,3.0259,3.0214,3.0163,3.0158,3.0028,3.001,2.9978,2.995,2.9894,2.9858,2.9802,2.9752,2.9665,2.9649,2.9661,2.9691,2.9728,2.9709,2.9438,2.9643,2.9641,2.9639,2.9638,2.9637,3.0586,3.0592,3.0515,3.0482,3.0432,3.0387,3.0382,3.0308,3.028,3.0225,3.0159,3.0136,3.0065,2.9981,2.9939,2.992,2.9872,2.9889,2.9892,2.9898,2.9913,2.9734,2.991,2.9909,2.9908,2.9907,2.9907,0,3.0787,3.0732,3.0704,3.0636,3.0612,3.0533,3.0473,3.0457,3.0438,3.038,3.0346,3.0311,3.0276,3.0187,3.0144,3.0146,3.0105,3.0139,3.0136,3.0127,2.9959,2.9953,3.0173,3.0173,3.0173,3.0173,3.0173,3.0173,3.0888,3.0893,3.0836,3.0816,3.076,3.0737,3.0709,3.0669,3.0621,3.0588,3.0558,3.05,3.043,3.0381,3.0346,3.0321,3.031,3.0357,3.0319,3.0164,3.0138,3.0114,3.0107,3.0356,3.0356,3.0487,3.0489,3.049]},{"header":{"parameterUnit":"m.s-1","parameterCategory":1,"la1":30.2991,"la2":30.254,"lo1":-89.0895,"lo2":-89.0444,"dy":0.0017,"dx":0.0017,"nx":28,"ny":28,"refTime":"2025-06-10T03:00:00:Z","depth":0,"parameterNumber":3,"parameterNumberName":"V-component_of_WINDS"},"data":[0,0,0,0,0,0,0,0,0,0,0,0,0,0,0,0,0,0,0,0,0,0,0,0,0,0,0,0,0,0,0,0,0,0,0,0,0,0,0,0,0,0,0,0,0,0,0,0,0,0,0,0,0,0,0,0,0,0,5.5799,5.5801,0,5.5947,5.5949,5.595,5.584,5.5835,5.5831,5.5826,5.5971,5.5979,5.5987,0,0,0,0,0,0,0,0,0,0,0,0,0,5.5414,5.5422,5.5799,5.5801,5.5803,5.5947,5.5949,5.5951,5.5841,5.5835,5.5829,5.5824,5.5968,5.5978,5.5988,0,0,0,0,0,0,0,0,0,0,0,0,0,5.5574,5.5424,5.5799,5.5766,5.5764,5.5946,5.5949,5.5951,5.5842,5.5835,5.5828,5.5821,5.5965,5.5977,5.5989,5.621,0,0,5.6028,5.6033,0,0,0,0,0,0,0,0,5.5565,5.5588,5.5769,5.5768,5.5767,5.5868,5.5866,5.6038,5.5844,5.5812,5.5826,5.5818,5.5942,5.5956,5.5999,5.6217,5.6223,5.6029,5.6036,5.6042,5.6045,0,0,0,0,0,0,0,5.5554,5.5581,5.5857,5.5771,5.577,5.5741,5.5755,5.5898,5.5915,5.5815,5.5807,5.5826,5.594,5.5988,5.6002,5.6225,5.6028,5.6039,5.6047,5.6052,5.6629,5.6636,0,0,0,0,0,0,5.5547,5.5572,5.5853,5.5862,5.5646,5.5754,5.577,5.5843,5.5914,5.5918,5.5832,5.5821,5.597,5.5987,5.6007,5.6269,5.6042,5.6053,5.606,5.6621,5.6631,5.6639,0,0,0,0,0,0,5.5539,5.5573,5.5847,5.5715,5.5748,5.5768,5.585,5.5849,5.5897,5.5927,5.5929,5.5878,5.5965,5.5989,5.616,5.6272,5.6059,5.607,5.6612,5.6624,5.6635,5.6796,0,0,0,0,0,0,5.5529,5.5571,5.5657,5.5718,5.5755,5.6001,5.5857,5.5857,5.5919,5.5905,5.5971,5.5974,5.5961,5.6142,5.6173,5.6286,5.608,5.6602,5.6617,5.6631,5.6781,5.6812,5.6838,0,0,0,0,0,5.5515,5.5696,5.5662,5.5697,5.5864,5.6008,5.6029,5.6012,5.5929,5.6014,5.6033,5.5972,5.6255,5.6161,5.6194,5.6313,5.6595,5.6613,5.663,5.6768,5.6806,5.6838,0,0,0,0,0,0,5.5646,5.5703,5.5667,5.5873,5.5937,5.5989,5.6097,5.6052,5.614,5.6123,5.6095,5.6111,5.6291,5.6318,5.6212,5.6528,5.6411,5.6436,5.6505,5.6541,5.6569,5.6559,5.609,0,0,0,0,0,5.5699,5.5814,5.5856,5.6034,5.6068,5.6077,5.6139,5.612,5.6184,5.621,5.6242,5.6304,5.6407,5.6475,5.6571,5.6783,5.6795,5.6881,5.691,5.6933,5.6955,5.7068,5.7106,5.6697,5.6697,5.6696,0,0,5.5809,5.5855,5.5928,5.6061,5.6108,5.6225,5.61,5.623,5.6315,5.6229,5.6393,5.6419,5.6486,5.6679,5.6765,5.6707,5.7071,5.6956,5.6974,5.6984,5.709,5.7129,5.7163,5.6709,5.6707,5.6705,0,0,5.607,5.6117,5.6269,5.6319,5.6393,5.6397,5.6434,5.6493,5.6507,5.6672,5.6609,5.6709,5.6887,5.6937,5.6986,5.7264,5.7211,5.7295,5.7446,5.7557,5.7589,5.7617,5.7716,5.7752,5.7317,5.7318,5.7318,0,5.6198,5.6374,5.6353,5.6487,5.6546,5.6475,5.6627,5.6676,5.6776,5.6818,5.6751,5.6972,5.7012,5.7215,5.7283,5.7325,5.7364,5.7289,5.7586,5.7615,5.7641,5.7734,5.7772,5.7328,5.7326,5.7325,5.7325,0,5.6526,5.6649,5.6763,5.6864,5.6935,5.7078,5.7076,5.7151,5.7125,5.7135,5.7302,5.7348,5.7452,5.7498,5.7473,5.7697,5.7659,5.759,5.7472,5.769,5.7778,5.7813,5.7342,5.7338,5.7335,5.7333,0,0,5.6876,5.6962,5.7005,5.7049,5.7124,5.7217,5.7354,5.7457,5.7522,5.7592,5.7706,5.7857,5.7793,5.7849,5.7829,5.7925,5.8141,5.7844,5.7845,5.7898,5.8389,5.8441,5.8484,5.8106,5.8112,5.8118,5.8384,0,5.7141,5.7384,5.7368,5.7596,5.7708,5.764,5.776,5.7817,5.783,5.7924,5.7937,5.8045,5.7953,5.7986,5.8079,5.8096,5.824,5.8076,5.821,5.8215,5.8196,5.8529,5.8585,5.8834,5.8418,5.8423,5.8428,0,5.7483,5.7567,5.7808,5.7864,5.791,5.8019,5.8111,5.8203,5.8265,5.8267,5.8329,5.8292,5.8428,5.8306,5.8492,5.8381,5.8433,5.845,5.8459,5.8472,5.8336,5.8551,5.8913,5.8951,5.8481,5.8477,5.8473,0,5.7714,5.7887,5.8053,5.8092,5.8163,5.824,5.8272,5.8328,5.839,5.8469,5.8509,5.8603,5.8654,5.8726,5.8714,5.8626,5.8903,5.878,5.8907,5.8908,5.897,5.8967,5.9346,5.9003,5.9003,5.9002,5.9001,0,5.8012,5.8161,5.8157,5.826,5.8424,5.8402,5.8564,5.8587,5.8636,5.874,5.8685,5.8782,5.8761,5.8857,5.8847,5.9002,5.9026,5.903,5.9026,5.9036,5.9035,5.9071,5.9054,5.9012,5.901,5.9008,5.9006,0,5.8299,5.8302,5.8478,5.853,5.8546,5.8665,5.8708,5.8803,5.881,5.8942,5.8971,5.8982,5.9092,5.9087,5.9211,5.9205,5.9396,5.9371,5.9376,5.9371,5.9499,5.9488,5.9916,5.9971,5.9592,5.9595,5.9598,0,5.8489,5.8603,5.8667,5.8733,5.8771,5.8879,5.8942,5.8923,5.8991,5.907,5.9155,5.926,5.9344,5.9522,5.954,5.9634,5.9611,5.9755,5.9625,5.9631,5.9614,5.9608,5.9619,5.9781,5.9785,5.9788,5.9791,0,5.8827,5.8823,5.8918,5.9014,5.9092,5.9166,5.9233,5.929,5.9278,5.9357,5.947,5.9535,5.9661,5.9766,5.9856,5.9885,5.9837,5.9832,5.9866,5.9878,5.9877,5.988,5.9447,5.9822,5.9819,5.9817,5.9815,5.9814,5.9072,5.9169,5.923,5.9337,5.9386,5.945,5.9542,5.9561,5.9656,5.9759,5.9741,5.9868,5.9924,6.0039,6.0077,6.0174,6.0123,6.0173,6.0186,6.0199,6.0213,5.9861,6.019,6.0189,6.0188,6.0187,6.0187,0,5.9407,5.9442,5.9541,5.9638,5.9722,5.967,5.9741,5.9814,5.9927,5.9984,6.0068,6.0197,6.0297,6.0323,6.0419,6.0491,6.0471,6.0517,6.0512,6.0519,6.0254,6.0215,6.0532,6.0532,6.0531,6.0531,6.0531,6.0531,5.9591,5.9753,5.9756,5.9941,5.9973,6.0099,6.0144,6.0202,6.0248,6.0395,6.048,6.0496,6.054,6.0638,6.0727,6.0732,6.077,6.0825,6.0821,6.0573,6.0538,6.0505,6.0468,6.0833,6.0834,6.1078,6.1081,6.1082]}]]